Location: Katowice
(50.2611°N, 19.0242°E)
Time: 12:21:16
(UTC+02:00)

Explorer 7 - All Passes

Search period start: 25 August 2019 00:00
Search period end: 04 September 2019 00:00
Orbit: 485 x 680 km, 50.3° (Epoch: 24 August)

Date Brightness Start Highest point End Pass type
(mag) Time Alt. Az. Time Alt. Az. Time Alt. Az.
25 Aug - 08:26:20 10° S 08:29:35 18° SE 08:32:46 10° E daylight
25 Aug - 10:04:51 10° SW 10:09:34 53° SSE 10:14:04 10° E daylight
25 Aug - 11:45:20 10° W 11:50:05 89° NW 11:54:36 10° E daylight
25 Aug - 13:26:07 10° W 13:30:44 73° SSW 13:35:01 10° ESE daylight
25 Aug - 15:07:07 10° W 15:10:51 27° SW 15:14:24 10° SSE daylight
26 Aug - 08:30:25 10° SSW 08:34:23 25° SE 08:38:15 10° E daylight
26 Aug - 10:09:45 10° WSW 10:14:33 66° SSE 10:19:08 10° E daylight
26 Aug - 11:50:25 10° W 11:55:11 88° N 11:59:40 10° E daylight
26 Aug - 13:31:12 10° W 13:35:44 60° SSW 13:39:58 10° ESE daylight
26 Aug - 15:12:30 10° W 15:15:39 19° SW 15:18:40 10° S daylight
27 Aug - 08:34:51 10° SSW 08:39:15 34° SSE 08:43:32 10° E daylight
27 Aug - 10:14:44 10° WSW 10:19:35 78° SSE 10:24:12 10° E daylight
27 Aug - 11:55:30 10° W 12:00:15 89° S 12:04:44 10° E daylight
27 Aug - 13:36:18 10° W 13:40:42 46° SSW 13:44:49 10° SE daylight
27 Aug - 15:18:20 10° WSW 15:20:23 13° SW 15:22:23 10° SSW daylight
28 Aug - 07:01:47 10° SSE 07:04:19 14° SE 07:06:52 10° ESE daylight
28 Aug - 08:39:30 10° SW 08:44:10 45° SSE 08:48:41 10° E daylight
28 Aug - 10:19:47 10° W 10:24:39 87° SSE 10:29:16 10° E daylight
28 Aug - 12:00:34 10° W 12:05:19 81° SSW 12:09:47 10° ESE daylight
28 Aug - 13:41:27 10° W 13:45:36 34° SSW 13:49:31 10° SSE daylight
29 Aug - 07:05:30 10° S 07:09:05 20° SE 07:12:38 10° E daylight
29 Aug - 08:44:19 10° SW 08:49:07 58° SSE 08:53:46 10° E daylight
29 Aug - 10:24:51 10° W 10:29:43 89° N 10:34:20 10° E daylight
29 Aug - 12:05:39 10° W 12:10:21 69° SSW 12:14:47 10° ESE daylight
29 Aug - 13:46:42 10° W 13:50:26 25° SW 13:54:00 10° SSE daylight
30 Aug - 07:09:43 10° SSW 07:13:53 28° SE 07:18:01 10° E daylight
30 Aug - 08:49:15 10° WSW 08:54:08 71° SSE 08:58:51 10° E daylight
30 Aug - 10:29:57 10° W 10:34:48 89° N 10:39:24 10° E daylight
30 Aug - 12:10:43 10° W 12:15:21 56° SSW 12:19:42 10° SE daylight
30 Aug - 13:52:10 10° W 13:55:12 18° SW 13:58:09 10° S daylight
31 Aug - 05:37:59 10° SE 05:39:06 11° SE 05:40:13 10° ESE daylight
31 Aug - 07:14:14 10° SW 07:18:46 38° SSE 07:23:14 10° E daylight
31 Aug - 08:54:15 10° WSW 08:59:10 82° S 09:03:54 10° E daylight
31 Aug - 10:35:01 10° W 10:39:52 87° S 10:44:28 10° E daylight
31 Aug - 12:15:49 10° W 12:20:17 43° SSW 12:24:30 10° SE daylight
31 Aug - 13:58:13 10° WSW 13:59:56 12° SW 14:01:36 10° SSW daylight
01 Sep - 05:40:49 10° S 05:43:48 16° SE 05:46:47 10° E daylight
01 Sep - 07:18:57 10° SW 07:23:42 50° SSE 07:28:21 10° E daylight
01 Sep - 08:59:19 10° W 09:04:13 89° S 09:08:58 10° E daylight
01 Sep - 10:40:05 10° W 10:44:55 78° SSW 10:49:30 10° ESE daylight
01 Sep - 12:20:59 10° W 12:25:10 32° SW 12:29:08 10° SSE daylight
02 Sep - 05:44:44 10° SSW 05:48:34 23° SE 05:52:23 10° E daylight
02 Sep - 07:23:48 10° WSW 07:28:40 63° SSE 07:33:26 10° E daylight
02 Sep - 09:04:23 10° W 09:09:18 88° N 09:14:03 10° E daylight
02 Sep - 10:45:09 10° W 10:49:56 66° SSW 10:54:29 10° ESE daylight
02 Sep - 12:26:17 10° W 12:29:59 23° SW 12:33:32 10° SSE daylight
03 Sep - 05:49:05 10° SSW 05:53:24 31° SE 05:57:42 10° E daylight
03 Sep - 07:28:45 10° WSW 07:33:41 75° SSE 07:38:30 10° E daylight
03 Sep - 09:09:27 10° W 09:14:23 90° N 09:19:07 10° E daylight
03 Sep - 10:50:14 10° W 10:54:55 52° SSW 10:59:22 10° SE daylight
03 Sep - 12:31:50 10° W 12:34:44 16° SW 12:37:34 10° S daylight
